Location: Newark
(12.4436°N, 0.6167°W)
Time: 01:16:58
(UTC+00:00)

Vanguard 2 - Pass Details

Date: 14 December 2019
Orbit: 553 x 2938 km, 32.9° (Epoch: 27 January)

Event Time Altitude Azimuth Distance (km) Brightness Sun altitude
Rises 22:35:07 0° 249° (WSW) 4,211 - -67.7°
Reaches altitude 10° 22:37:32 10° 252° (WSW) 3,497 - -68.2°
Maximum altitude 22:46:56 66° 333° (NNW) 2,133 - -70.1°
Drops below altitude 10° 23:02:19 10° 53° (NE) 5,458 - -73.1°
Sets 23:07:10 0° 56° (ENE) 6,658 - -73.9°
